TimeEDT,TemperatureF,Dew PointF,Humidity,Sea Level PressureIn,VisibilityMPH,Wind Direction,Wind SpeedMPH,Gust SpeedMPH,PrecipitationIn,Events,Conditions,WindDirDegrees,DateUTC
12:54 AM,34.0,15.1,46,30.62,10.0,ESE,3.5,-,N/A,,Mostly Cloudy,110,2013-04-22 04:54:00
1:54 AM,33.1,16.0,50,30.61,10.0,SE,4.6,-,N/A,,Scattered Clouds,140,2013-04-22 05:54:00
2:54 AM,33.1,18.0,54,30.59,10.0,SE,5.8,-,N/A,,Scattered Clouds,140,2013-04-22 06:54:00
3:54 AM,34.0,19.0,54,30.58,10.0,Calm,Calm,-,N/A,,Partly Cloudy,0,2013-04-22 07:54:00
4:54 AM,30.9,19.9,64,30.57,10.0,Calm,Calm,-,N/A,,Scattered Clouds,0,2013-04-22 08:54:00
5:54 AM,30.9,21.9,69,30.58,10.0,SSE,3.5,-,N/A,,Mostly Cloudy,160,2013-04-22 09:54:00
6:54 AM,30.9,21.9,69,30.59,10.0,Calm,Calm,-,N/A,,Mostly Cloudy,0,2013-04-22 10:54:00
7:54 AM,36.0,27.0,70,30.60,10.0,Calm,Calm,-,N/A,,Overcast,0,2013-04-22 11:54:00
8:54 AM,42.1,25.0,51,30.58,10.0,South,5.8,-,N/A,,Overcast,180,2013-04-22 12:54:00
9:54 AM,48.9,25.0,39,30.57,10.0,South,9.2,-,N/A,,Overcast,170,2013-04-22 13:54:00
10:54 AM,51.1,21.9,32,30.56,10.0,SSE,18.4,25.3,N/A,,Overcast,160,2013-04-22 14:54:00
11:54 AM,54.0,23.0,30,30.54,10.0,SSE,18.4,23.0,N/A,,Mostly Cloudy,150,2013-04-22 15:54:00
12:54 PM,55.0,24.1,30,30.51,10.0,South,13.8,20.7,N/A,,Mostly Cloudy,180,2013-04-22 16:54:00
1:54 PM,55.9,24.1,29,30.48,10.0,ESE,9.2,-,N/A,,Mostly Cloudy,120,2013-04-22 17:54:00
2:54 PM,57.9,27.0,31,30.45,10.0,SE,15.0,19.6,N/A,,Mostly Cloudy,130,2013-04-22 18:54:00
3:54 PM,59.0,26.1,28,30.43,10.0,East,17.3,23.0,N/A,,Scattered Clouds,100,2013-04-22 19:54:00
4:54 PM,57.9,26.1,30,30.41,10.0,ESE,13.8,21.9,N/A,,Partly Cloudy,120,2013-04-22 20:54:00
5:54 PM,59.0,24.1,26,30.39,10.0,SE,16.1,23.0,N/A,,Clear,130,2013-04-22 21:54:00
6:54 PM,57.9,23.0,26,30.38,10.0,ESE,16.1,21.9,N/A,,Clear,120,2013-04-22 22:54:00
7:54 PM,55.9,21.9,27,30.38,10.0,SE,12.7,-,N/A,,Clear,130,2013-04-22 23:54:00
8:54 PM,54.0,21.9,29,30.38,10.0,ESE,10.4,-,N/A,,Clear,120,2013-04-23 00:54:00
9:54 PM,51.1,23.0,33,30.38,10.0,SE,6.9,-,N/A,,Clear,130,2013-04-23 01:54:00
10:54 PM,50.0,24.1,36,30.37,10.0,SE,8.1,-,N/A,,Clear,140,2013-04-23 02:54:00
11:54 PM,48.0,25.0,41,30.36,10.0,SE,6.9,-,N/A,,Clear,140,2013-04-23 03:54:00